Time,TemperatureF,DewpointF,PressureIn,WindDirection,WindDirectionDegrees,WindSpeedMPH,WindSpeedGustMPH,Humidity,HourlyPrecipIn,Conditions,Clouds,dailyrainin,SolarRadiationWatts/m^2,SoftwareType,DateUTC
2013-01-22 00:02:00,41.0,28.0,-100.00,East,100,1.0,4.0,60,0.00,,,0.00,1.000000,,2013-01-22 06:02:00,
2013-01-22 00:33:00,41.0,27.0,-100.00,ENE,67,1.0,4.0,58,0.00,,,0.00,1.000000,,2013-01-22 06:33:00,
2013-01-22 00:43:00,41.0,27.0,-100.00,ENE,67,1.0,4.0,58,0.00,,,0.00,1.000000,,2013-01-22 06:43:00,
2013-01-22 00:53:00,41.0,27.0,-100.00,ENE,67,1.0,4.0,58,0.00,,,0.00,1.000000,,2013-01-22 06:53:00,
2013-01-22 01:02:00,41.0,27.0,-100.00,ENE,67,1.0,4.0,58,0.00,,,0.00,1.000000,,2013-01-22 07:02:00,
2013-01-22 01:33:00,39.0,32.0,-100.00,NNW,332,3.0,5.0,76,0.00,,,0.00,1.000000,,2013-01-22 07:33:00,
2013-01-22 01:43:00,39.0,32.0,-100.00,NNW,332,3.0,5.0,76,0.00,,,0.00,1.000000,,2013-01-22 07:43:00,
2013-01-22 01:53:00,39.0,32.0,-100.00,NNW,332,3.0,5.0,76,0.00,,,0.00,1.000000,,2013-01-22 07:53:00,
2013-01-22 02:02:00,39.0,32.0,-100.00,NNW,332,3.0,5.0,76,0.00,,,0.00,1.000000,,2013-01-22 08:02:00,
2013-01-22 02:33:00,38.0,31.0,-100.00,NNE,25,3.0,5.0,77,0.00,,,0.00,1.000000,,2013-01-22 08:33:00,
2013-01-22 02:43:00,38.0,31.0,-100.00,NNE,25,3.0,5.0,77,0.00,,,0.00,1.000000,,2013-01-22 08:43:00,
2013-01-22 02:53:00,38.0,31.0,-100.00,NNE,25,3.0,5.0,77,0.00,,,0.00,1.000000,,2013-01-22 08:53:00,
2013-01-22 03:02:00,38.0,31.0,-100.00,NNE,25,3.0,5.0,77,0.00,,,0.00,1.000000,,2013-01-22 09:02:00,
2013-01-22 03:33:00,37.0,28.0,-100.00,SSE,148,1.0,5.0,70,0.00,,,0.00,1.000000,,2013-01-22 09:33:00,
2013-01-22 03:43:00,37.0,28.0,-100.00,SSE,148,1.0,5.0,70,0.00,,,0.00,1.000000,,2013-01-22 09:43:00,
2013-01-22 03:52:00,37.0,28.0,-100.00,SSE,148,1.0,5.0,70,0.00,,,0.00,1.000000,,2013-01-22 09:52:00,
2013-01-22 04:02:00,37.0,28.0,-100.00,SSE,148,1.0,5.0,70,0.00,,,0.00,1.000000,,2013-01-22 10:02:00,
2013-01-22 04:33:00,35.0,28.0,-100.00,SSE,162,2.0,5.0,75,0.00,,,0.00,1.000000,,2013-01-22 10:33:00,
2013-01-22 04:43:00,35.0,28.0,-100.00,SSE,162,2.0,5.0,75,0.00,,,0.00,1.000000,,2013-01-22 10:43:00,
2013-01-22 04:52:00,35.0,28.0,-100.00,SSE,162,2.0,5.0,75,0.00,,,0.00,1.000000,,2013-01-22 10:52:00,
2013-01-22 05:02:00,35.0,28.0,-100.00,SSE,162,2.0,5.0,75,0.00,,,0.00,1.000000,,2013-01-22 11:02:00,
2013-01-22 05:33:00,34.0,27.0,-100.00,SE,127,4.0,5.0,76,0.00,,,0.00,1.000000,,2013-01-22 11:33:00,
2013-01-22 05:43:00,34.0,27.0,-100.00,SE,127,4.0,5.0,76,0.00,,,0.00,1.000000,,2013-01-22 11:43:00,
2013-01-22 05:53:00,34.0,27.0,-100.00,SE,127,4.0,5.0,76,0.00,,,0.00,1.000000,,2013-01-22 11:53:00,
2013-01-22 06:03:00,34.0,27.0,-100.00,SE,127,4.0,5.0,76,0.00,,,0.00,1.000000,,2013-01-22 12:03:00,
2013-01-22 06:33:00,35.0,26.0,-100.00,NNE,15,4.0,6.0,70,0.00,,,0.00,1.000000,,2013-01-22 12:33:00,
2013-01-22 06:43:00,35.0,26.0,-100.00,NNE,15,4.0,6.0,70,0.00,,,0.00,1.000000,,2013-01-22 12:43:00,
2013-01-22 06:53:00,35.0,26.0,-100.00,NNE,15,4.0,6.0,70,0.00,,,0.00,1.000000,,2013-01-22 12:53:00,
2013-01-22 07:03:00,35.0,26.0,-100.00,NNE,15,4.0,6.0,70,0.00,,,0.00,1.000000,,2013-01-22 13:03:00,
2013-01-22 07:34:00,35.0,24.0,-100.00,West,280,1.0,5.0,64,0.00,,,0.00,1.000000,,2013-01-22 13:34:00,
2013-01-22 07:43:00,35.0,24.0,-100.00,West,280,1.0,5.0,64,0.00,,,0.00,1.000000,,2013-01-22 13:43:00,
2013-01-22 07:53:00,35.0,24.0,-100.00,West,280,1.0,5.0,64,0.00,,,0.00,1.000000,,2013-01-22 13:53:00,
2013-01-22 08:03:00,35.0,24.0,-100.00,West,280,1.0,5.0,64,0.00,,,0.00,1.000000,,2013-01-22 14:03:00,
2013-01-22 08:34:00,35.0,29.0,-100.00,SSW,212,0.0,2.0,77,0.00,,,0.00,15.000000,,2013-01-22 14:34:00,
2013-01-22 08:44:00,35.0,29.0,-100.00,SSW,212,0.0,2.0,77,0.00,,,0.00,15.000000,,2013-01-22 14:44:00,
2013-01-22 08:54:00,35.0,29.0,-100.00,SSW,212,0.0,2.0,77,0.00,,,0.00,15.000000,,2013-01-22 14:54:00,
2013-01-22 09:03:00,35.0,29.0,-100.00,SSW,212,0.0,2.0,77,0.00,,,0.00,15.000000,,2013-01-22 15:03:00,
2013-01-22 09:34:00,43.0,30.0,-100.00,ENE,60,3.0,5.0,61,0.00,,,0.00,157.000000,,2013-01-22 15:34:00,
2013-01-22 09:44:00,43.0,30.0,-100.00,ENE,60,3.0,5.0,61,0.00,,,0.00,157.000000,,2013-01-22 15:44:00,
2013-01-22 09:53:00,43.0,30.0,-100.00,ENE,60,3.0,5.0,61,0.00,,,0.00,157.000000,,2013-01-22 15:53:00,
2013-01-22 10:03:00,43.0,30.0,-100.00,ENE,60,3.0,5.0,61,0.00,,,0.00,157.000000,,2013-01-22 16:03:00,
2013-01-22 10:33:00,49.0,30.0,-100.00,East,98,4.0,7.0,48,0.00,,,0.00,340.000000,,2013-01-22 16:33:00,
2013-01-22 10:43:00,49.0,30.0,-100.00,East,98,4.0,7.0,48,0.00,,,0.00,340.000000,,2013-01-22 16:43:00,
2013-01-22 10:54:00,49.0,30.0,-100.00,East,98,4.0,7.0,48,0.00,,,0.00,340.000000,,2013-01-22 16:54:00,
2013-01-22 11:03:00,49.0,30.0,-100.00,East,98,4.0,7.0,48,0.00,,,0.00,340.000000,,2013-01-22 17:03:00,
2013-01-22 11:35:00,53.0,34.0,-100.00,SE,130,6.0,10.0,49,0.00,,,0.00,489.000000,,2013-01-22 17:35:00,
2013-01-22 11:44:00,53.0,34.0,-100.00,SE,130,6.0,10.0,49,0.00,,,0.00,489.000000,,2013-01-22 17:44:00,
2013-01-22 11:54:00,53.0,34.0,-100.00,SE,130,6.0,10.0,49,0.00,,,0.00,489.000000,,2013-01-22 17:54:00,
2013-01-22 12:03:00,53.0,34.0,-100.00,SE,130,6.0,10.0,49,0.00,,,0.00,489.000000,,2013-01-22 18:03:00,
2013-01-22 12:34:00,59.0,38.0,-100.00,SE,132,5.0,9.0,45,0.00,,,0.00,589.000000,,2013-01-22 18:34:00,
2013-01-22 12:44:00,59.0,38.0,-100.00,SE,132,5.0,9.0,45,0.00,,,0.00,589.000000,,2013-01-22 18:44:00,
2013-01-22 12:54:00,59.0,38.0,-100.00,SE,132,5.0,9.0,45,0.00,,,0.00,589.000000,,2013-01-22 18:54:00,
2013-01-22 13:03:00,59.0,38.0,-100.00,SE,132,5.0,9.0,45,0.00,,,0.00,589.000000,,2013-01-22 19:03:00,
2013-01-22 13:34:00,64.0,39.0,-100.00,NNE,13,4.0,10.0,40,0.00,,,0.00,633.000000,,2013-01-22 19:34:00,
2013-01-22 13:43:00,64.0,39.0,-100.00,NNE,13,4.0,10.0,40,0.00,,,0.00,633.000000,,2013-01-22 19:43:00,
2013-01-22 13:54:00,64.0,39.0,-100.00,NNE,13,4.0,10.0,40,0.00,,,0.00,633.000000,,2013-01-22 19:54:00,
2013-01-22 14:03:00,64.0,39.0,-100.00,NNE,13,4.0,10.0,40,0.00,,,0.00,633.000000,,2013-01-22 20:03:00,
2013-01-22 14:34:00,69.0,42.0,-100.00,North,4,5.0,9.0,37,0.00,,,-99.99,612.000000,,2013-01-22 20:34:00,
2013-01-22 14:43:00,69.0,42.0,-100.00,North,4,5.0,9.0,37,0.00,,,-99.99,612.000000,,2013-01-22 20:43:00,
2013-01-22 14:53:00,69.0,42.0,-100.00,North,4,5.0,9.0,37,0.00,,,-99.99,612.000000,,2013-01-22 20:53:00,
2013-01-22 15:03:00,69.0,42.0,-100.00,North,4,5.0,9.0,37,0.00,,,-99.99,612.000000,,2013-01-22 21:03:00,
2013-01-22 15:34:00,69.0,40.0,-100.00,NNW,338,9.0,14.0,35,0.00,,,0.00,530.000000,,2013-01-22 21:34:00,
2013-01-22 15:43:00,69.0,40.0,-100.00,NNW,338,9.0,14.0,35,0.00,,,0.00,530.000000,,2013-01-22 21:43:00,
2013-01-22 15:53:00,69.0,40.0,-100.00,NNW,338,9.0,14.0,35,0.00,,,0.00,530.000000,,2013-01-22 21:53:00,
2013-01-22 16:03:00,69.0,40.0,-100.00,NNW,338,9.0,14.0,35,0.00,,,0.00,530.000000,,2013-01-22 22:03:00,
2013-01-22 16:33:00,72.0,46.0,-100.00,SW,218,14.0,20.0,39,0.00,,,0.00,398.000000,,2013-01-22 22:33:00,
2013-01-22 16:43:00,72.0,46.0,-100.00,SW,218,14.0,20.0,39,0.00,,,0.00,398.000000,,2013-01-22 22:43:00,
2013-01-22 16:53:00,72.0,46.0,-100.00,SW,218,14.0,20.0,39,0.00,,,0.00,398.000000,,2013-01-22 22:53:00,
2013-01-22 17:03:00,72.0,46.0,-100.00,SW,218,14.0,20.0,39,0.00,,,0.00,398.000000,,2013-01-22 23:03:00,
2013-01-22 17:33:00,71.0,46.0,-100.00,SSW,213,12.0,20.0,41,0.00,,,0.00,230.000000,,2013-01-22 23:33:00,
2013-01-22 17:43:00,71.0,46.0,-100.00,SSW,213,12.0,20.0,41,0.00,,,0.00,230.000000,,2013-01-22 23:43:00,
2013-01-22 17:53:00,71.0,46.0,-100.00,SSW,213,12.0,20.0,41,0.00,,,0.00,230.000000,,2013-01-22 23:53:00,
2013-01-22 18:03:00,71.0,46.0,-100.00,SSW,213,12.0,20.0,41,0.00,,,0.00,230.000000,,2013-01-23 00:03:00,
2013-01-22 18:33:00,66.0,45.0,-100.00,SSW,199,6.0,17.0,46,0.00,,,0.00,58.000000,,2013-01-23 00:33:00,
2013-01-22 18:43:00,66.0,45.0,-100.00,SSW,199,6.0,17.0,46,0.00,,,0.00,58.000000,,2013-01-23 00:43:00,
2013-01-22 18:52:00,66.0,45.0,-100.00,SSW,199,6.0,17.0,46,0.00,,,0.00,58.000000,,2013-01-23 00:52:00,
2013-01-22 19:03:00,66.0,45.0,-100.00,SSW,199,6.0,17.0,46,0.00,,,0.00,58.000000,,2013-01-23 01:03:00,
2013-01-22 19:33:00,61.0,46.0,-100.00,SSW,203,6.0,7.0,57,0.00,,,-99.99,1.000000,,2013-01-23 01:33:00,
2013-01-22 19:43:00,61.0,46.0,-100.00,SSW,203,6.0,7.0,57,0.00,,,-99.99,1.000000,,2013-01-23 01:43:00,
2013-01-22 19:53:00,61.0,46.0,-100.00,SSW,203,6.0,7.0,57,0.00,,,-99.99,1.000000,,2013-01-23 01:53:00,
2013-01-22 20:03:00,61.0,46.0,-100.00,SSW,203,6.0,7.0,57,0.00,,,-99.99,1.000000,,2013-01-23 02:03:00,
2013-01-22 20:33:00,58.0,47.0,-100.00,SSW,207,7.0,11.0,67,0.00,,,0.00,1.000000,,2013-01-23 02:33:00,
2013-01-22 20:43:00,58.0,47.0,-100.00,SSW,207,7.0,11.0,67,0.00,,,0.00,1.000000,,2013-01-23 02:43:00,
2013-01-22 20:53:00,58.0,47.0,-100.00,SSW,207,7.0,11.0,67,0.00,,,0.00,1.000000,,2013-01-23 02:53:00,
2013-01-22 21:03:00,58.0,47.0,-100.00,SSW,207,7.0,11.0,67,0.00,,,0.00,1.000000,,2013-01-23 03:03:00,
2013-01-22 21:33:00,56.0,47.0,-100.00,SSW,207,4.0,9.0,73,0.00,,,0.00,1.000000,,2013-01-23 03:33:00,
2013-01-22 21:43:00,56.0,47.0,-100.00,SSW,207,4.0,9.0,73,0.00,,,0.00,1.000000,,2013-01-23 03:43:00,
2013-01-22 21:53:00,56.0,47.0,-100.00,SSW,207,4.0,9.0,73,0.00,,,0.00,1.000000,,2013-01-23 03:53:00,
2013-01-22 22:03:00,56.0,47.0,-100.00,SSW,207,4.0,9.0,73,0.00,,,0.00,1.000000,,2013-01-23 04:03:00,
2013-01-22 22:33:00,55.0,48.0,-100.00,SSE,156,0.0,4.0,78,0.00,,,0.00,1.000000,,2013-01-23 04:33:00,
2013-01-22 22:43:00,55.0,48.0,-100.00,SSE,156,0.0,4.0,78,0.00,,,0.00,1.000000,,2013-01-23 04:43:00,
2013-01-22 22:53:00,55.0,48.0,-100.00,SSE,156,0.0,4.0,78,0.00,,,0.00,1.000000,,2013-01-23 04:53:00,
2013-01-22 23:03:00,55.0,48.0,-100.00,SSE,156,0.0,4.0,78,0.00,,,0.00,1.000000,,2013-01-23 05:03:00,
2013-01-22 23:33:00,53.0,47.0,-100.00,ESE,109,2.0,4.0,79,0.00,,,0.00,1.000000,,2013-01-23 05:33:00,
2013-01-22 23:43:00,53.0,47.0,-100.00,ESE,109,2.0,4.0,79,0.00,,,0.00,1.000000,,2013-01-23 05:43:00,
2013-01-22 23:53:00,53.0,47.0,-100.00,ESE,109,2.0,4.0,79,0.00,,,0.00,1.000000,,2013-01-23 05:53:00,